Location: Zagreb
(45.8000°N, 16.0000°E)
Time: 21:00:20
(UTC+01:00)

Oscar 11 - Pass Details

Date: 04 November 2020
Orbit: 613 x 625 km, 97.6° (Epoch: 01 December)

Event Time Altitude Azimuth Distance (km) Brightness Sun altitude
Rises 17:27:29 0° 170° (S) 2,880 10.5 -9.1°
Reaches altitude 10° 17:29:39 10° 172° (S) 1,977 9.7 -9.5°
Maximum altitude 17:33:57 75° 257° (WSW) 644 7.3 -10.2°
Drops below altitude 10° 17:38:17 10° 344° (NNW) 1,986 9.7 -10.9°
Sets 17:40:29 0° 346° (NNW) 2,895 10.5 -11.3°
